Date String (YYYY-MM-DD hh:mm:ss) UTC,Instrument flags,Ambient pressure (hPa),Sample flow (lpm),Bypass flow (lpm),Sample temperature (°C),Ambient temperature (°C),ASC tube jacket temperature (°C),LED temperature (°C),Box temperature (°C),Sample RH (%),Span deviation,Mass concentration (μg/m³),Mass concentration (μg/m³),Mass concentration (μg/m³)
DateTimeUTC,F1_M11,P_M11,Q1_M11,Q2_M11,T1_M11,T2_M11,T3_M11,T4_M11,T5_M11,U1_M11,ZSPAN_M11,X2_M11,X0_M11,X1_M11
2022-05-23 01:00:00,,0826.2,5.00,0.00,30.1,27.2,00.0,39.0,31.4,15.5,0000.0,0000.02,0000.04,0000.01
2022-05-23 01:01:00,,0826.2,5.01,0.00,30.0,27.3,00.0,39.0,31.4,15.7,0000.0,0000.02,0000.04,0000.01
2022-05-23 01:02:00,,0826.2,5.00,0.00,29.9,27.4,00.0,38.9,31.4,16.0,0000.0,0000.03,0000.06,0000.01
2022-05-23 01:03:00,,0826.2,5.00,0.00,29.9,27.6,00.0,38.9,31.5,15.4,0000.0,0000.05,0000.09,0000.01
2022-05-23 01:04:00,,0826.2,4.99,0.00,29.8,27.8,00.0,38.9,31.5,15.3,0000.0,0000.06,0000.11,0000.01
2022-05-23 01:05:00,,0826.2,5.02,0.00,29.8,28.0,00.0,38.8,31.5,15.3,0000.0,0000.04,0000.08,0000.00
2022-05-23 01:06:00,,0826.2,4.99,0.00,29.8,28.2,00.0,38.8,31.6,15.3,0000.0,0000.04,0000.07,0000.00
2022-05-23 01:07:00,,0826.3,5.00,0.00,29.8,28.4,00.0,38.8,31.6,15.1,0000.0,0000.04,0000.07,0000.00
2022-05-23 01:08:00,,0826.4,5.01,0.00,29.8,28.5,00.0,38.8,31.6,14.9,0000.0,0000.04,0000.07,0000.00
2022-05-23 01:09:00,,0826.4,5.00,0.00,29.9,28.6,00.0,38.8,31.7,15.0,0000.0,0000.04,0000.07,0000.00
2022-05-23 01:10:00,,0826.5,4.99,0.00,29.9,28.7,00.0,38.8,31.7,15.2,0000.0,0000.04,0000.07,0000.00
2022-05-23 01:11:00,,0826.5,5.00,0.00,29.9,28.8,00.0,38.8,31.7,14.8,0000.0,0000.04,0000.07,0000.00
2022-05-23 01:12:00,,0826.5,5.00,0.00,29.9,28.8,00.0,38.8,31.8,14.8,0000.0,0000.04,0000.07,0000.00
2022-05-23 01:13:00,,0826.5,5.01,0.00,29.9,28.9,00.0,38.8,31.8,15.0,0000.0,0000.03,0000.05,0000.00
2022-05-23 01:14:00,,0826.5,5.00,0.00,29.9,29.0,00.0,38.8,31.8,15.1,0000.0,0000.01,0000.08,0000.00
2022-05-23 01:15:00,,0826.5,4.99,0.00,30.0,29.0,00.0,38.8,31.8,15.2,0000.0,0000.00,0000.32,0000.00
2022-05-23 01:16:00,,0826.5,5.00,0.00,30.0,29.1,00.0,38.9,31.9,15.1,0000.0,0000.00,0000.33,0000.00
2022-05-23 01:17:00,,0826.5,5.01,0.00,30.0,29.1,00.0,38.9,31.9,15.6,0000.0,0000.00,0000.32,0000.00
2022-05-23 01:18:00,,0826.5,5.01,0.00,30.0,29.2,00.0,38.9,31.9,15.2,0000.0,0000.00,0000.32,0000.00
2022-05-23 01:19:00,,0826.5,5.00,0.00,30.1,29.2,00.0,38.9,31.9,15.1,0000.0,0000.00,0000.33,0000.00
2022-05-23 01:20:00,,0826.5,4.99,0.00,30.1,29.3,00.0,38.9,32.0,15.1,0000.0,0000.02,0000.38,0000.00
2022-05-23 01:21:00,,0826.5,5.01,0.00,30.1,29.3,00.0,38.9,32.0,15.1,0000.0,0000.03,0000.49,0000.00
2022-05-23 01:22:00,,0826.5,5.00,0.00,30.1,29.3,00.0,39.0,32.0,14.9,0000.0,0000.03,0000.51,0000.00
2022-05-23 01:23:00,,0826.5,5.01,0.00,30.1,29.4,00.0,39.0,32.0,14.9,0000.0,0000.03,0000.51,0000.00
2022-05-23 01:24:00,,0826.5,4.99,0.00,30.2,29.4,00.0,39.0,32.0,14.6,0000.0,0000.03,0000.51,0000.01
2022-05-23 01:25:00,,0826.5,5.01,0.00,30.2,29.4,00.0,39.0,32.0,14.7,0000.0,0000.03,0000.45,0000.01
2022-05-23 01:26:00,,0826.5,5.00,0.00,30.2,29.4,00.0,39.0,32.1,14.9,0000.0,0000.03,0000.19,0000.01
2022-05-23 01:27:00,,0826.5,5.00,0.00,30.2,29.5,00.0,39.1,32.1,14.7,0000.0,0000.03,0000.19,0000.01
2022-05-23 01:28:00,,0826.4,4.99,0.00,30.3,29.5,00.0,39.1,32.1,14.7,0000.0,0000.03,0000.19,0000.01
2022-05-23 01:29:00,,0826.5,5.00,0.00,30.3,29.5,00.0,39.1,32.1,14.5,0000.0,0000.03,0000.19,0000.01
2022-05-23 01:30:00,,0826.5,5.00,0.00,30.3,29.5,00.0,39.1,32.1,14.6,0000.0,0000.04,0000.25,0000.01
2022-05-23 01:31:00,,0826.5,5.00,0.00,30.3,29.6,00.0,39.1,32.2,14.5,0000.0,0000.03,0000.24,0000.01
2022-05-23 01:32:00,,0826.5,4.99,0.00,30.3,29.6,00.0,39.1,32.2,14.6,0000.0,0000.02,0000.11,0000.01
2022-05-23 01:33:00,,0826.5,4.99,0.00,30.4,29.6,00.0,39.2,32.2,14.9,0000.0,0000.02,0000.11,0000.01
2022-05-23 01:34:00,,0826.5,5.01,0.00,30.4,29.6,00.0,39.2,32.2,15.2,0000.0,0000.02,0000.11,0000.01
2022-05-23 01:35:00,,0826.5,5.01,0.00,30.4,29.6,00.0,39.2,32.2,15.4,0000.0,0000.02,0000.11,0000.00
2022-05-23 01:36:00,,0826.6,5.00,0.00,30.4,29.7,00.0,39.2,32.3,15.5,0000.0,0000.02,0000.11,0000.00
2022-05-23 01:37:00,,0826.6,5.00,0.00,30.4,29.7,00.0,39.2,32.3,15.7,0000.0,0000.02,0000.11,0000.01
2022-05-23 01:38:00,,0826.5,5.00,0.00,30.4,29.7,00.0,39.3,32.3,15.8,0000.0,0000.02,0000.11,0000.01
2022-05-23 01:39:00,,0826.5,5.01,0.00,30.4,28.8,00.0,39.2,32.0,16.0,0000.0,0000.02,0000.11,0000.01
2022-05-23 01:40:00,,0826.5,5.00,0.00,30.3,27.5,00.0,39.1,31.7,16.1,0000.0,0000.02,0000.11,0000.01
2022-05-23 01:41:00,,0826.5,4.99,0.00,30.1,27.0,00.0,39.0,31.5,16.2,0000.0,0000.01,0000.06,0000.00
2022-05-23 01:42:00,,0826.5,5.01,0.00,30.0,27.0,00.0,39.0,31.4,16.5,0000.0,0000.00,0000.01,0000.00
2022-05-23 01:43:00,,0826.5,5.00,0.00,29.9,27.1,00.0,38.9,31.4,16.3,0000.0,0000.00,0000.01,0000.00
2022-05-23 01:44:00,,0826.5,5.01,0.00,29.9,27.4,00.0,38.9,31.4,16.3,0000.0,0000.00,0000.01,0000.00
2022-05-23 01:45:00,,0826.5,5.00,0.00,29.8,27.6,00.0,38.9,31.4,16.5,0000.0,0000.01,0000.13,0000.00
2022-05-23 01:46:00,,0826.5,5.00,0.00,29.8,27.8,00.0,38.8,31.5,16.7,0000.0,0000.01,0000.41,0000.00
2022-05-23 01:47:00,,0826.5,4.99,0.00,29.8,28.0,00.0,38.8,31.5,16.7,0000.0,0000.01,0000.41,0000.00
2022-05-23 01:48:00,,0826.5,5.00,0.00,29.8,28.2,00.0,38.8,31.5,16.8,0000.0,0000.01,0000.41,0000.00
2022-05-23 01:49:00,,0826.5,5.01,0.00,29.8,28.3,00.0,38.8,31.6,16.9,0000.0,0000.01,0000.41,0000.01
2022-05-23 01:50:00,,0826.6,5.00,0.00,29.8,28.5,00.0,38.8,31.6,16.9,0000.0,0000.01,0000.41,0000.01
2022-05-23 01:51:00,,0826.6,5.00,0.00,29.8,28.6,00.0,38.8,31.7,17.0,0000.0,0000.02,0000.50,0000.00
2022-05-23 01:52:00,,0826.6,5.00,0.00,29.8,28.7,00.0,38.8,31.7,16.9,0000.0,0000.02,0000.71,0000.00
2022-05-23 01:53:00,,0826.6,4.99,0.00,29.9,28.8,00.0,38.8,31.7,16.8,0000.0,0000.03,0001.10,0000.00
2022-05-23 01:54:00,,0826.6,5.00,0.00,29.9,28.9,00.0,38.8,31.8,16.9,0000.0,0000.03,0001.10,0000.00
2022-05-23 01:55:00,,0826.6,5.00,0.00,29.9,28.9,00.0,38.8,31.8,16.8,0000.0,0000.03,0001.10,0000.00
2022-05-23 01:56:00,,0826.6,4.99,0.00,29.9,29.0,00.0,38.8,31.8,16.7,0000.0,0000.03,0001.04,0000.00
2022-05-23 01:57:00,,0826.6,4.99,0.00,30.0,29.0,00.0,38.8,31.8,16.7,0000.0,0000.02,0000.69,0000.01
2022-05-23 01:58:00,,0826.6,5.00,0.00,30.0,29.1,00.0,38.8,31.9,16.8,0000.0,0000.02,0000.69,0000.01
2022-05-23 01:59:00,,0826.5,5.00,0.00,30.0,29.1,00.0,38.8,31.9,16.9,0000.0,0000.02,0000.69,0000.00
